{"data":{"norad_id":59812,"intl_designator":"2024-095C","name":"2024-095C","alt_names":[],"object_type":"PAYLOAD","status":"ACTIVE","operator":null,"country":"PRC","launch_date":"2024-05-21","launch_site_code":"JSC","launch_vehicle":null,"mission":null,"orbit_class":"UNKNOWN","rcs_meters":null,"size_class":null,"mass_kg":null,"dimensions":null,"purposes":[],"wikipedia_slug":null,"has_3d_model":false,"image_url":null,"decayed_at":null,"tle_current":{"epoch":"2026-05-31T06:41:57.656256Z","epoch_age_seconds":9968628,"freshness":"OLD","line1":"1 59812U 24095C   26151.27913954  .05525121  25708-5  12558-2 0  9991","line2":"2 59812  97.5292 258.7723 0014744 267.5440  92.4165 16.29801527113624","mean_motion":16.29801527,"eccentricity":0.0014744,"inclination_deg":97.5292,"raan_deg":258.7723,"arg_perigee_deg":267.544,"mean_anomaly_deg":92.4165,"bstar":0.0012558,"rev_number":11362,"period_min":88.354316531451,"perigee_km":183.38462949476,"apogee_km":202.76181419694,"semimajor_km":6571.2102218458,"source":"CELESTRAK","updated_at":"2026-06-01T09:00:21.494313Z"}}}